Find Starlink 3608

NORAD ID: 51776 Int'l Des: 2022-017 Owner: SPXS Country: US Constellation: starlink operational
LEOCIRCULAR

リアルタイム位置

3D地球を読み込み中...

Starlink 3608について

説明を読み込み中...

次回通過

Passes for default location (London). Set your location on the main map for personalized predictions.

高度履歴

Loading altitude history...

軌道要素

1 51776U 22017J 26127.14763120 .00000082 00000-0 23259-4 0 9995
2 51776 53.2168 76.6893 0001353 84.2086 275.9060 15.08837222231397
Epoch: May 7, 2026 • Age: 9 hours

現在のステータス

高度 553.7 km
速度 7.58 km/s
衛星直下点 -40.25°S, 22.11°W
打ち上げ日 Feb 25, 2022
運用期間 4.1 years
タイプ internet

技術仕様

分類 Payload
質量 297.00 kg
乾燥質量 275.00 kg
総質量 297.00 kg
長さ 0.20 m
直径 2.80 m
スパン 9.00 m
形状 Box + pan
製造者 SPXS
バスタイプ Starlink
フェーズステータス In Orbit
所有者/国 SPXS/US

Most Searched